TimeEDT,TemperatureF,Dew PointF,Humidity,Sea Level PressureIn,VisibilityMPH,Wind Direction,Wind SpeedMPH,Gust SpeedMPH,PrecipitationIn,Events,Conditions,WindDirDegrees,DateUTC
12:02 AM,28.4,26.6,93,29.73,3.0,SSE,11.5,-,N/A,,Overcast,150,2013-03-19 04:02:00
12:21 AM,28.4,26.6,93,29.73,3.0,South,10.4,-,0.00,Rain,Light Freezing Rain,170,2013-03-19 04:21:00
12:30 AM,28.4,26.6,93,29.72,2.0,South,12.7,-,0.00,Rain,Light Freezing Rain,170,2013-03-19 04:30:00
12:37 AM,28.4,26.6,93,29.72,1.2,SSE,10.4,-,0.00,Rain,Light Freezing Rain,160,2013-03-19 04:37:00
12:54 AM,28.0,27.0,96,29.80,2.5,SSE,9.2,-,0.00,Rain,Light Freezing Rain,160,2013-03-19 04:54:00
1:04 AM,28.4,26.6,93,29.71,3.0,SSE,10.4,-,0.00,Rain,Light Freezing Rain,160,2013-03-19 05:04:00
1:14 AM,28.4,28.4,100,29.70,3.0,South,11.5,-,0.00,,Overcast,170,2013-03-19 05:14:00
1:24 AM,28.4,28.4,100,29.70,3.0,South,9.2,-,0.00,Rain,Light Freezing Rain,170,2013-03-19 05:24:00
1:54 AM,28.9,28.0,96,29.77,10.0,SSE,6.9,-,0.00,Rain,Light Freezing Rain,160,2013-03-19 05:54:00
2:04 AM,28.4,28.4,100,29.69,9.0,SSE,8.1,-,0.00,,Overcast,160,2013-03-19 06:04:00
2:20 AM,30.2,28.4,93,29.70,3.0,South,9.2,-,0.00,Rain,Light Freezing Rain,170,2013-03-19 06:20:00
2:54 AM,30.0,28.0,92,29.77,5.0,South,10.4,-,0.00,Rain,Light Freezing Rain,180,2013-03-19 06:54:00
3:54 AM,30.0,28.9,96,29.73,5.0,South,9.2,-,0.00,Rain,Light Freezing Rain,170,2013-03-19 07:54:00
4:37 AM,30.2,28.4,93,29.66,1.5,SW,6.9,-,0.01,Rain,Light Freezing Rain,230,2013-03-19 08:37:00
4:54 AM,30.0,30.0,100,29.75,1.5,SW,5.8,-,0.02,Rain,Light Freezing Rain,220,2013-03-19 08:54:00
5:01 AM,30.2,30.2,100,29.68,1.8,SSW,8.1,-,0.01,Rain,Light Freezing Rain,200,2013-03-19 09:01:00
5:04 AM,30.2,30.2,100,29.68,3.0,SSW,5.8,-,0.01,Rain,Light Freezing Rain,210,2013-03-19 09:04:00
5:11 AM,30.2,30.2,100,29.68,3.0,SW,5.8,-,0.02,Rain,Light Freezing Rain,220,2013-03-19 09:11:00
5:20 AM,30.2,30.2,100,29.69,2.5,WSW,8.1,-,0.02,Rain,Light Freezing Rain,240,2013-03-19 09:20:00
5:26 AM,30.2,30.2,100,29.69,0.8,WSW,6.9,-,0.02,Rain,Light Freezing Rain,240,2013-03-19 09:26:00
5:54 AM,32.0,30.9,96,29.76,0.2,WSW,8.1,-,0.02,Fog-Rain,Light Freezing Rain,250,2013-03-19 09:54:00
6:12 AM,33.8,32.0,93,29.71,0.8,WNW,10.4,-,0.00,Rain,Light Freezing Rain,290,2013-03-19 10:12:00
6:19 AM,32.0,30.2,93,29.71,0.8,NW,17.3,-,0.00,Snow,Light Snow,310,2013-03-19 10:19:00
6:37 AM,32.0,30.2,93,29.72,1.8,WNW,17.3,25.3,0.00,Snow,Light Snow,290,2013-03-19 10:37:00
6:44 AM,32.0,30.2,93,29.72,2.5,West,20.7,26.5,0.00,Snow,Light Snow,280,2013-03-19 10:44:00
6:54 AM,30.9,30.0,96,29.80,3.0,West,21.9,28.8,0.00,Snow,Light Snow,280,2013-03-19 10:54:00
7:03 AM,30.2,30.2,100,29.72,2.5,West,24.2,-,0.00,Snow,Light Snow,280,2013-03-19 11:03:00
7:19 AM,30.2,28.4,93,29.72,4.0,West,24.2,33.4,0.00,Snow,Light Snow,270,2013-03-19 11:19:00
7:32 AM,30.2,28.4,93,29.72,9.0,West,19.6,28.8,0.00,,Overcast,280,2013-03-19 11:32:00
7:54 AM,30.9,28.0,89,29.80,10.0,West,19.6,24.2,0.00,,Overcast,280,2013-03-19 11:54:00
8:24 AM,30.2,26.6,86,29.72,10.0,West,21.9,31.1,N/A,,Overcast,260,2013-03-19 12:24:00
8:54 AM,30.9,26.1,82,29.80,10.0,West,17.3,28.8,0.01,,Overcast,270,2013-03-19 12:54:00
9:54 AM,32.0,24.1,73,29.78,10.0,WSW,18.4,27.6,N/A,,Overcast,240,2013-03-19 13:54:00
10:31 AM,33.8,23.0,65,29.70,10.0,SW,24.2,39.1,N/A,,Overcast,230,2013-03-19 14:31:00
10:54 AM,34.0,23.0,64,29.76,10.0,WSW,18.4,40.3,N/A,,Overcast,250,2013-03-19 14:54:00
11:54 AM,35.1,23.0,61,29.75,10.0,WSW,16.1,29.9,N/A,,Mostly Cloudy,250,2013-03-19 15:54:00
12:54 PM,36.0,21.0,55,29.74,10.0,WSW,24.2,31.1,N/A,,Mostly Cloudy,250,2013-03-19 16:54:00
1:54 PM,37.0,17.1,44,29.73,10.0,West,25.3,40.3,N/A,,Overcast,260,2013-03-19 17:54:00
2:54 PM,37.0,16.0,42,29.73,10.0,West,23.0,31.1,N/A,,Overcast,270,2013-03-19 18:54:00
3:54 PM,37.9,16.0,41,29.74,10.0,West,21.9,33.4,N/A,,Mostly Cloudy,270,2013-03-19 19:54:00
4:54 PM,35.1,14.0,42,29.79,10.0,West,24.2,42.6,N/A,,Scattered Clouds,280,2013-03-19 20:54:00
5:54 PM,30.9,15.1,52,29.83,10.0,WNW,23.0,35.7,N/A,,Overcast,290,2013-03-19 21:54:00
6:54 PM,28.9,17.1,61,29.86,8.0,West,20.7,28.8,0.00,Snow,Light Snow,280,2013-03-19 22:54:00
7:37 PM,26.6,19.4,74,29.80,1.8,West,17.3,31.1,0.00,Snow,Light Snow,280,2013-03-19 23:37:00
7:47 PM,26.6,19.4,74,29.80,3.0,West,15.0,24.2,0.00,Snow,Light Snow,280,2013-03-19 23:47:00
7:54 PM,26.1,19.9,78,29.88,8.0,West,11.5,19.6,0.00,Snow,Light Snow,280,2013-03-19 23:54:00
8:03 PM,26.6,19.4,74,29.80,10.0,West,13.8,25.3,N/A,,Mostly Cloudy,280,2013-03-20 00:03:00
8:48 PM,26.6,19.4,74,29.81,2.5,WNW,15.0,23.0,0.00,Snow,Light Snow,290,2013-03-20 00:48:00
8:54 PM,26.1,19.9,78,29.89,1.2,WNW,16.1,21.9,0.00,Snow,Light Snow,290,2013-03-20 00:54:00
9:12 PM,24.8,21.2,86,29.82,3.0,West,17.3,24.2,0.00,Snow,Light Snow,270,2013-03-20 01:12:00
9:22 PM,24.8,19.4,80,29.82,9.0,West,11.5,27.6,0.00,Snow,Light Snow,280,2013-03-20 01:22:00
9:54 PM,26.1,16.0,66,29.90,10.0,West,16.1,26.5,0.00,,Overcast,280,2013-03-20 01:54:00
10:54 PM,25.0,12.9,60,29.92,10.0,West,18.4,31.1,N/A,,Mostly Cloudy,280,2013-03-20 02:54:00
11:54 PM,25.0,12.9,60,29.93,10.0,West,18.4,32.2,N/A,,Overcast,280,2013-03-20 03:54:00